DELTA 1 DEB, 10709

Orbit data source: Space-Track

DELTA 1 DEB, 10709 is space debris in SSO originally from a launch on Thu, 29 Jul 1976 UTC launched from the Air Force Western Test Range (AFWTR). Debris objects in space refer to the collection of defunct objects orbiting the Earth. Examples of debris include non-operational satellites, rocket bodies, and fragments generated from explosions, collisions, or faulty payload assembly.

Loading next visibility...
Identifier
10709, 1976-077AE
Orbit
SSO
Last TLE update
15 hours ago
Origin
Manufacturer
Unknown
Mission
Spacecraft
Bus & Motor
Unknown
Mass
Unknown
Launch date (UTC)
1976-07-29 (49 years ago)
Launch vehicle
Unknown
Launch site
Air Force Western Test Range (AFWTR)
Object type
Payload
Rocket body
Debris
Shape & HBR
Unknown
Radar Cross Section
Medium (>0.1 m² and <1 m²)

Expand to show TLE details & history

TLE from 15 hours ago
0 DELTA 1 DEB
1 10709U 76077AE  25128.74943713 -.00000052  00000-0 -50404-4 0  9996
2 10709 101.9097 195.8446 0029427 194.1457 281.6456 12.46573444215637
Epoch: 2025-05-08T17:59Z
Definitive object data (Epoch: 2025-05-08T17:59:11.368Z)
Latitude
62.14947°
Longitude
-97.36396°
Altitude
1,484.722 km
Speed
7.129 km/s
True Right ascension
02h 36m 59s
True Declination
62° 01' 13"
Sunlit
Object was in daylight at TLE epoch
Visualization TLE readout
Latitude
-26.06971°
Longitude
65.72949°
Altitude
1,506.093 km
Speed
7.103 km/s
Apparent Right ascension
10h 34m 44s
Apparent Declination
-54° 21' 14"
Sunlit
Object is in full shadow
Visualization observer readout
Local Sidereal Time
16:47:10
Azimuth
223.98° SW
Elevation
-33.07°
Doppler factor
1
Orbital elements
Apogee altitude
1,499.534 km
Perigee altitude
1,453.307 km
Semi-major axis
7,854.558 km
Eccentricity
0.0029427
Inclination
101.9097°
RAAN
195.8446°
Arg. of periapsis
194.1457°
True anomaly
281.31509°
Mean anomaly
281.6456°
Eccentric anomaly
281.48037°
Mean motion
3.11789 °/min
BSTAR
-0.000050404
Orbital period
115.46 mins
Loading maneuver chart data...
Loading SW <> Apogee altitude chart data...
Loading historical data...
Loading historical data...
Loading historical data...
Loading historical data...
Loading historical data...
Loading historical data...
Loading historical data...

DELTA 1 DEB Visibility forecast

Observer location: undefined°, undefined°

Span
Click to sort rows by Start time (UTC) header in descending order
Start Az.
Max El. time (UTC)
Max El. Az.
Max El.
End time (UTC)
End Az.
15 mins2025-05-09 17:06:58.643Z24.636° NE2025-05-09 17:13:58.643Z106.924° ESE42.766°2025-05-09 17:21:58.643Z187.358° SSW
12 mins2025-05-09 19:00:58.643Z353.486° N2025-05-09 19:06:58.643Z300.098° NW25.686°2025-05-09 19:12:58.643Z251.135° W
10 mins2025-05-10 02:18:58.643Z86.522° E2025-05-10 02:22:58.643Z53.46° ENE20.25°2025-05-10 02:28:58.643Z7.369° NNE
15 mins2025-05-10 04:07:58.643Z159.672° S2025-05-10 04:14:58.643Z156.011° SSE44.77°2025-05-10 04:22:58.643Z342.613° N
9 mins2025-05-10 06:05:58.643Z238.981° WSW2025-05-10 06:09:58.643Z270.943° WNW17.209°2025-05-10 06:14:58.643Z307.988° NW
|